SCP
0 0 0 0 0 0 0 0 0 0 0 0 0 0 0 0 0 0 0 0 0 0 0 0 0 0 0 0 0 0 0 0 0 0 0 0 0 0 0 0 0 0 0
0 0 0 0 0 0 0 0 0 0 0 0 0 0 0 0 0 0 0 0 0 0 0 0 0 0 0 0 0 0 0 0 0 0 0 0 0 0 0 0 0 0 0
0 0 0 0 0 0 0 0 0 0 0 0 0 0 0 0 0 0 0 0 0 0 0 0 0 0 0 0 0 0 0 0 0 0 0 0 0 0 0 0 0 0 0
0 0 0 0 0 0 0 0 0 0 0 0 0 0 0 0 0 0 0 0 0 0 0 0 0 0 0 0 0 0 0 0 0 0 0 0 0 0 0 0 0 0 0
0 0 0 0 0 0 0 0 0 0 0 0 0 0 0 0 0 0 0 0 0 0 0 0 0 0 0 0 0 0 0 0 0 0 0 0 0 0 0 0 0 0 0
0 0 0 0 0 0 0 0 0 0 0 0 0 0 0 0 0 0 0 0 0 0 0 0 0 0 0 0 0 0 0 0 0 0 0 0 0 0 0 0 0 0 0
0 0 0 0 0 0 0 0 0 0 0 0 0 0 0 0 0 0 0 0 0 0 0 0 0 0 0 0 0 0 0 0 0 0 0 0 0 0 0 0 0 0 0
0 0 0 0 0 0 0 0 0 0 0 0 0 0 0 0 0 0 0 0 0 0 0 0 0 0 0 0 0 0 0 0 0 0 0 0 0 0 0 0 0 0 0
0 0 0 0 0 0 0 0 0 0 0 0 0 0 0 0 0 0 0 0 0 0 0 0 0 0 0 0 0 0 0 0 0 0 0 0 0 0 0 0 0 0 0
0 0 0 0 0 0 0 0 0 0 0 0 0 0 0 0 0 0 0 0 0 0 0 0 0 0 0 0 0 0 0 0 0 0 0 0 0 0 0 0 0 0 0
0 0 0 0 0 0 0 0 0 0 0 0 0 0 0 0 0 0 0 0 0 0 0 0 0 0 0 0 0 0 0 0 0 0 0 0 0 0 0 0 0 0 0
0 0 0 0 0 0 0 0 0 0 0 0 0 0 0 0 0 0 0 0 0 0 0 0 0 0 0 0 0 0 0 0 0 0 0 0 0 0 0 0 0 0 0
0 0 0 0 0 0 0 0 0 0 0 0 0 0 0 0 0 0 0 0 0 0 0 0 0 0 0 0 0 0 0 0 0 0 0 0 0 0 0 0 0 0 0
0 0 0 0 0 0 0 0 0 0 0 0 0 0 0 0 0 0 0 0 0 0 0 0 0 0 0 0 0 0 0 0 0 0 0 0 0 0 0 0 0 0 0
0 0 0 0 0 0 0 0 0 0 0 0 0 0 0 0 0 0 0 0 0 0 0 0 0 0 0 0 0 0 0 0 0 0 0 0 0 0 0 0 0 0 0
0 0 0 0 0 0 0 0 0 0 0 0 0 0 0 0 0 0 0 0 0 0 0 0 0 0 0 0 0 0 0 0 0 0 0 0 0 0 0 0 0 0 0
0 0 0 0 0 0 0 0 0 0 0 0 0 0 0 0 0 0 0 0 0 0 0 0 0 0 0 0 0 0 0 0 0 0 0 0 0 0 0 0 0 0 0
0 0 0 0 0 0 0 0 0 0 0 0 0 0 0 0 0 0 0 0 0 0 0 0 0 0 0 0 0 0 0 0 0 0 0 0 0 0 0 0 0 0 0
0 0 0 0 0 0 0 0 0 0 0 0 0 0 0 0 0 0 0 0 0 0 0 0 0 0 0 0 0 0 0 0 0 0 0 0 0 0 0 0 0 0 0
0 0 0 0 0 0 0 0 0 0 0 0 0 0 0 0 0 0 0 0 0 0 0 0 0 0 0 0 0 0 0 0 0 0 0 0 0 0 0 0 0 0 0
0 0 0 0 0 0 0 0 0 0 0 0 0 0 0 0 0 0 0 0 0 0 0 0 0 0 0 0 0 0 0 0 0 0 0 0 0 0 0 0 0 0 0
0 0 0 0 0 0 0 0 0 0 0 0 0 0 0 0 0 0 0 0 0 0 0 0 0 0 0 0 0 0 0 0 0 0 0 0 0 0 0 0 0 0 0
0 0 0 0 0 0 0 0 0 0 0 0 0 0 0 0 0 0 0 0 0 0 0 0 0 0 0 0 0 0 0 0 0 0 0 0 0 0 0 0 0 0 0
0 0 0 0 0 0 0 0 0 0 0 0 0 0 0 0 0 0 0 0 0 0 0 0 0 0 0 0 0 0 0 0 0 0 0 0 0 0 0 0 0 0 0
0 0 0 0 0 0 0 0 0 0 0 0 0 0 0 0 0 0 0 0 0 0 0 0 0 0 0 0 0 0 0 0 0 0 0 0 0 0 0 0 0 0 0
0 0 0 0 0 0 0 0 0 0 0 0 0 0 0 0 0 0 0 0 0 0 0 0 0 0 0 0 0 0 0 0 0 0 0 0 0 0 0 0 0 0 0
Wind_Speed_500mb
32 27 30 27 25 21 14 14 12 12 14 14 13 14 22 27 27 28 28 21 24 29 37 36 35 30 28 34 34 37 40 42 42 43 45 47 48 48 48 49 50 51 54
37 38 34 35 32 30 25 20 16 19 19 17 13 24 24 26 26 27 26 22 20 18 13 16 18 30 30 31 32 33 36 39 42 44 44 46 49 50 52 54 54 55 55
43 44 40 41 37 47 34 27 22 24 22 20 22 28 27 27 26 24 23 20 17 12 12 14 16 19 27 28 29 30 33 37 39 41 45 47 48 51 52 54 57 59 60
50 52 47 46 39 48 38 27 23 27 28 24 29 32 30 29 27 24 20 16 11 9 10 12 12 16 18 20 24 27 31 35 39 41 42 44 47 50 52 54 57 60 61
63 57 53 48 44 54 41 30 29 31 36 33 37 37 35 32 28 22 16 10 7 7 7 9 11 12 13 13 18 25 30 35 37 38 40 43 46 48 53 57 61 63 64
60 64 58 59 55 62 46 42 36 39 41 40 45 42 38 33 27 21 14 8 3 1 4 6 8 9 10 14 18 23 28 31 33 35 37 40 44 48 54 58 59 59 61
66 66 66 67 61 58 63 47 43 46 51 51 53 46 38 32 27 22 16 11 7 5 5 7 9 10 11 14 18 20 22 24 27 30 34 40 44 50 57 56 55 58 60
65 66 66 67 61 67 67 48 54 58 60 61 56 44 28 28 31 27 21 16 12 9 9 10 10 11 13 15 18 18 19 21 22 26 32 38 44 50 55 53 53 58 61
66 70 67 68 69 63 68 60 64 67 70 72 65 30 18 17 36 33 28 23 19 17 15 13 13 13 14 15 15 16 18 17 19 24 30 36 42 48 51 55 56 62 66
64 65 70 75 68 80 69 62 65 73 75 76 75 62 27 25 20 22 35 30 27 23 18 16 16 15 15 14 16 18 17 16 20 24 30 35 40 44 49 53 60 68 72
71 72 70 76 77 78 64 71 72 80 79 77 78 70 47 34 29 20 21 37 36 29 23 21 20 19 16 15 17 17 17 19 22 27 32 37 41 46 51 56 64 72 76
77 73 74 75 81 75 76 71 74 77 78 77 77 61 53 45 42 32 22 26 27 30 28 26 24 23 19 18 19 18 20 24 28 32 38 42 45 49 55 61 68 75 80
84 82 76 78 77 84 84 74 74 77 80 75 71 60 53 47 37 38 27 26 26 30 29 29 28 25 23 22 23 23 24 29 35 39 44 48 50 53 59 64 71 75 79
77 77 70 70 72 77 75 74 76 79 81 76 71 61 55 49 41 34 31 28 21 22 28 27 26 27 25 26 28 29 32 35 42 46 50 53 54 57 64 66 71 75 79
71 73 68 65 71 77 78 76 79 82 81 74 68 62 56 48 41 35 30 26 22 18 21 26 28 25 25 30 33 35 38 44 49 52 55 57 58 62 66 65 69 75 78
72 76 68 69 72 81 79 79 82 82 81 75 69 62 54 47 40 32 26 23 19 24 22 25 26 27 30 33 38 41 45 49 52 54 57 59 59 63 63 63 70 75 78
78 78 77 73 71 79 82 86 86 83 80 76 69 61 53 44 36 29 23 18 25 25 26 29 29 29 31 34 40 45 48 51 55 59 61 63 62 64 61 64 70 74 75
80 79 80 83 81 81 85 92 91 87 83 78 70 62 54 45 36 27 18 25 26 26 27 29 31 33 34 38 43 47 51 54 57 60 65 68 65 60 61 65 70 73 71
83 82 83 84 89 88 87 91 89 87 82 75 68 61 53 46 37 28 18 31 30 29 29 32 37 39 42 45 48 53 56 60 63 66 70 73 64 66 67 70 71 72 68
82 81 83 84 87 90 89 92 92 88 83 76 67 59 52 47 36 24 24 34 34 33 33 36 42 45 49 51 54 57 61 61 69 71 73 73 69 72 76 75 76 73 75
81 78 81 85 89 90 92 96 97 94 87 78 69 61 56 48 37 25 34 41 39 38 38 43 48 50 54 57 59 58 65 70 72 73 70 67 70 73 71 75 73 77 77
82 83 81 83 85 90 93 97 97 93 85 78 74 68 59 47 42 33 40 48 46 45 45 50 53 56 60 62 62 62 67 70 65 67 72 77 70 72 77 69 79 84 80
83 83 82 82 86 92 94 98 97 88 82 76 71 66 54 51 45 41 46 54 53 54 54 54 59 61 63 63 67 69 70 71 75 67 74 95 81 80 75 81 85 87 76
80 80 83 84 87 92 96 100 94 85 78 73 69 61 57 52 46 49 50 57 62 65 60 59 65 66 67 68 71 74 76 80 75 76 70 85 75 90 89 90 89 79 72
79 79 80 81 84 86 93 88 85 82 73 68 66 63 56 60 50 54 52 62 71 73 63 64 66 67 70 71 70 65 69 74 77 53 51 77 78 84 96 90 77 82 88
68 72 73 73 75 72 68 69 72 69 69 69 74 60 70 66 56 53 53 68 77 76 68 69 69 70 68 66 65 69 65 69 70 70 47 59 63 52 57 76 86 90 85
Wind_Direction_500mb
227 221 229 223 215 213 219 222 215 197 168 158 139 130 130 127 123 121 118 117 96 92 86 82 81 73 57 56 50 46 43 33 29 23 18 14 15 10 6 5 2 2 3
225 228 230 227 221 216 199 207 241 214 180 180 157 146 143 138 134 125 120 114 105 104 97 65 49 65 65 59 54 44 33 25 18 17 10 7 9 9 8 6 1 0 358
230 234 236 234 224 235 202 201 234 218 196 179 166 157 154 145 138 139 135 124 117 94 64 36 35 53 62 57 51 39 22 19 15 12 9 7 7 6 7 4 4 3 3
232 234 234 234 231 218 202 203 237 218 199 192 178 166 160 154 154 150 139 125 111 74 45 32 20 8 3 359 36 37 22 17 11 5 5 6 6 5 6 4 2 1 1
227 232 232 234 239 209 204 210 235 226 208 197 183 172 166 165 165 156 144 133 103 49 17 2 353 350 353 11 30 23 16 10 6 6 8 10 12 13 10 8 5 3 2
224 228 229 231 233 214 218 217 231 219 210 206 184 175 173 173 171 164 163 159 139 329 326 338 342 340 351 360 359 359 2 2 6 8 13 15 15 14 11 9 7 4 2
223 228 226 226 228 239 212 215 227 223 206 203 186 176 175 178 180 182 186 193 216 250 293 305 310 322 335 344 346 352 358 1 6 13 14 15 14 13 11 7 4 1 359
224 225 226 229 227 223 207 223 228 215 210 204 192 176 173 189 196 198 201 209 220 240 262 277 292 309 322 332 339 346 351 358 8 11 12 9 9 9 8 3 359 356 353
221 226 228 226 229 232 221 237 226 223 213 202 199 184 175 199 196 206 208 214 222 234 246 261 279 294 310 321 329 338 343 352 360 3 3 2 3 3 1 357 353 349 346
219 216 233 224 231 226 223 237 235 222 220 215 203 204 203 204 178 191 215 218 223 230 238 253 267 280 294 306 321 329 332 337 346 351 349 350 353 353 351 348 344 341 339
222 229 227 227 224 221 241 238 228 220 221 221 213 211 217 215 210 197 197 216 221 226 235 246 256 267 278 294 309 312 314 323 333 336 336 340 343 343 342 340 338 334 332
221 225 227 230 232 234 246 232 226 224 221 221 220 224 231 225 223 217 208 206 214 226 233 242 250 256 268 284 295 297 305 316 323 325 327 331 334 335 333 332 332 330 329
223 225 228 234 238 236 234 225 223 223 221 220 221 226 231 229 234 228 222 209 203 224 230 241 247 252 262 278 288 291 300 310 315 318 320 323 327 328 326 327 327 326 325
234 230 234 239 235 226 222 223 224 222 218 218 221 228 226 226 229 223 227 218 206 217 230 240 248 251 260 277 287 291 298 306 309 312 315 318 322 322 320 323 323 322 322
233 231 236 239 232 228 222 223 222 217 215 218 221 221 221 224 223 220 218 216 216 217 226 246 247 253 265 283 290 295 300 304 308 310 312 315 317 316 316 319 321 321 321
231 229 231 236 233 231 224 222 217 214 216 217 217 218 218 219 218 216 216 219 232 232 220 242 249 263 278 288 293 297 301 303 305 309 312 313 315 314 316 317 320 320 320
228 229 230 234 234 234 228 221 218 217 215 215 215 215 216 214 212 211 215 258 240 237 237 250 259 270 280 289 293 297 301 304 308 312 314 315 317 314 316 317 320 320 320
228 229 231 232 233 231 230 223 219 215 215 213 213 213 212 209 204 206 245 250 245 249 252 259 267 273 280 287 293 299 303 307 311 314 314 314 317 316 316 320 320 321 318
228 230 232 233 235 232 228 223 218 216 215 215 217 216 212 204 199 230 232 247 250 256 262 269 276 280 285 290 295 300 305 309 311 312 313 313 315 316 324 324 321 321 319
231 234 236 236 237 234 226 221 217 215 215 216 216 214 208 200 227 230 233 248 253 259 268 274 278 284 290 293 296 300 302 305 306 309 310 308 311 323 322 324 323 322 323
234 237 240 238 237 233 227 222 219 217 216 214 212 208 202 216 250 217 238 252 257 262 270 278 281 287 290 292 295 298 298 302 303 307 307 306 311 317 321 322 319 319 323
235 237 239 239 239 235 228 223 222 219 216 215 212 206 204 228 261 218 243 254 258 264 271 276 282 286 290 291 292 294 296 299 303 303 305 304 310 315 318 316 318 320 323
237 240 238 241 241 236 230 223 221 219 218 217 215 210 216 242 261 226 244 255 261 266 270 276 281 284 288 291 291 292 296 296 295 297 299 303 307 311 315 315 319 318 322
241 243 242 241 240 237 230 223 219 219 218 219 217 215 235 259 263 236 246 259 266 269 271 278 282 287 290 292 291 293 294 291 293 296 298 298 307 309 312 314 319 317 320
240 242 243 241 239 235 228 224 221 219 218 219 218 227 245 267 265 248 246 258 265 269 274 278 281 283 285 286 289 294 289 291 291 290 280 294 300 307 311 315 317 316 319
242 242 243 241 238 232 224 220 222 223 224 222 223 231 262 267 255 251 251 262 267 272 278 279 279 281 282 284 285 284 284 282 288 290 294 286 297 307 309 309 312 316 317
Wind_Speed_850mb
32 27 30 27 25 21 14 14 12 12 14 14 13 14 22 27 27 28 28 21 24 29 37 36 35 30 28 34 34 37 40 42 42 43 45 47 48 48 48 49 50 51 54
37 38 34 35 32 30 25 20 16 19 19 17 13 24 24 26 26 27 26 22 20 18 13 16 18 30 30 31 32 33 36 39 42 44 44 46 49 50 52 54 54 55 55
43 44 40 41 37 47 34 27 22 24 22 20 22 28 27 27 26 24 23 20 17 12 12 14 16 19 27 28 29 30 33 37 39 41 45 47 48 51 52 54 57 59 60
50 52 47 46 39 48 38 27 23 27 28 24 29 32 30 29 27 24 20 16 11 9 10 12 12 16 18 20 24 27 31 35 39 41 42 44 47 50 52 54 57 60 61
63 57 53 48 44 54 41 30 29 31 36 33 37 37 35 32 28 22 16 10 7 7 7 9 11 12 13 13 18 25 30 35 37 38 40 43 46 48 53 57 61 63 64
60 64 58 59 55 62 46 42 36 39 41 40 45 42 38 33 27 21 14 8 3 1 4 6 8 9 10 14 18 23 28 31 33 35 37 40 44 48 54 58 59 59 61
66 66 66 67 61 58 63 47 43 46 51 51 53 46 38 32 27 22 16 11 7 5 5 7 9 10 11 14 18 20 22 24 27 30 34 40 44 50 57 56 55 58 60
65 66 66 67 61 67 67 48 54 58 60 61 56 44 28 28 31 27 21 16 12 9 9 10 10 11 13 15 18 18 19 21 22 26 32 38 44 50 55 53 53 58 61
66 70 67 68 69 63 68 60 64 67 70 72 65 30 18 17 36 33 28 23 19 17 15 13 13 13 14 15 15 16 18 17 19 24 30 36 42 48 51 55 56 62 66
64 65 70 75 68 80 69 62 65 73 75 76 75 62 27 25 20 22 35 30 27 23 18 16 16 15 15 14 16 18 17 16 20 24 30 35 40 44 49 53 60 68 72
71 72 70 76 77 78 64 71 72 80 79 77 78 70 47 34 29 20 21 37 36 29 23 21 20 19 16 15 17 17 17 19 22 27 32 37 41 46 51 56 64 72 76
77 73 74 75 81 75 76 71 74 77 78 77 77 61 53 45 42 32 22 26 27 30 28 26 24 23 19 18 19 18 20 24 28 32 38 42 45 49 55 61 68 75 80
84 82 76 78 77 84 84 74 74 77 80 75 71 60 53 47 37 38 27 26 26 30 29 29 28 25 23 22 23 23 24 29 35 39 44 48 50 53 59 64 71 75 79
77 77 70 70 72 77 75 74 76 79 81 76 71 61 55 49 41 34 31 28 21 22 28 27 26 27 25 26 28 29 32 35 42 46 50 53 54 57 64 66 71 75 79
71 73 68 65 71 77 78 76 79 82 81 74 68 62 56 48 41 35 30 26 22 18 21 26 28 25 25 30 33 35 38 44 49 52 55 57 58 62 66 65 69 75 78
72 76 68 69 72 81 79 79 82 82 81 75 69 62 54 47 40 32 26 23 19 24 22 25 26 27 30 33 38 41 45 49 52 54 57 59 59 63 63 63 70 75 78
78 78 77 73 71 79 82 86 86 83 80 76 69 61 53 44 36 29 23 18 25 25 26 29 29 29 31 34 40 45 48 51 55 59 61 63 62 64 61 64 70 74 75
80 79 80 83 81 81 85 92 91 87 83 78 70 62 54 45 36 27 18 25 26 26 27 29 31 33 34 38 43 47 51 54 57 60 65 68 65 60 61 65 70 73 71
83 82 83 84 89 88 87 91 89 87 82 75 68 61 53 46 37 28 18 31 30 29 29 32 37 39 42 45 48 53 56 60 63 66 70 73 64 66 67 70 71 72 68
82 81 83 84 87 90 89 92 92 88 83 76 67 59 52 47 36 24 24 34 34 33 33 36 42 45 49 51 54 57 61 61 69 71 73 73 69 72 76 75 76 73 75
81 78 81 85 89 90 92 96 97 94 87 78 69 61 56 48 37 25 34 41 39 38 38 43 48 50 54 57 59 58 65 70 72 73 70 67 70 73 71 75 73 77 77
82 83 81 83 85 90 93 97 97 93 85 78 74 68 59 47 42 33 40 48 46 45 45 50 53 56 60 62 62 62 67 70 65 67 72 77 70 72 77 69 79 84 80
83 83 82 82 86 92 94 98 97 88 82 76 71 66 54 51 45 41 46 54 53 54 54 54 59 61 63 63 67 69 70 71 75 67 74 95 81 80 75 81 85 87 76
80 80 83 84 87 92 96 100 94 85 78 73 69 61 57 52 46 49 50 57 62 65 60 59 65 66 67 68 71 74 76 80 75 76 70 85 75 90 89 90 89 79 72
79 79 80 81 84 86 93 88 85 82 73 68 66 63 56 60 50 54 52 62 71 73 63 64 66 67 70 71 70 65 69 74 77 53 51 77 78 84 96 90 77 82 88
68 72 73 73 75 72 68 69 72 69 69 69 74 60 70 66 56 53 53 68 77 76 68 69 69 70 68 66 65 69 65 69 70 70 47 59 63 52 57 76 86 90 85
Wind_Direction_850mb
227 221 229 223 215 213 219 222 215 197 168 158 139 130 130 127 123 121 118 117 96 92 86 82 81 73 57 56 50 46 43 33 29 23 18 14 15 10 6 5 2 2 3
225 228 230 227 221 216 199 207 241 214 180 180 157 146 143 138 134 125 120 114 105 104 97 65 49 65 65 59 54 44 33 25 18 17 10 7 9 9 8 6 1 0 358
230 234 236 234 224 235 202 201 234 218 196 179 166 157 154 145 138 139 135 124 117 94 64 36 35 53 62 57 51 39 22 19 15 12 9 7 7 6 7 4 4 3 3
232 234 234 234 231 218 202 203 237 218 199 192 178 166 160 154 154 150 139 125 111 74 45 32 20 8 3 359 36 37 22 17 11 5 5 6 6 5 6 4 2 1 1
227 232 232 234 239 209 204 210 235 226 208 197 183 172 166 165 165 156 144 133 103 49 17 2 353 350 353 11 30 23 16 10 6 6 8 10 12 13 10 8 5 3 2
224 228 229 231 233 214 218 217 231 219 210 206 184 175 173 173 171 164 163 159 139 329 326 338 342 340 351 360 359 359 2 2 6 8 13 15 15 14 11 9 7 4 2
223 228 226 226 228 239 212 215 227 223 206 203 186 176 175 178 180 182 186 193 216 250 293 305 310 322 335 344 346 352 358 1 6 13 14 15 14 13 11 7 4 1 359
224 225 226 229 227 223 207 223 228 215 210 204 192 176 173 189 196 198 201 209 220 240 262 277 292 309 322 332 339 346 351 358 8 11 12 9 9 9 8 3 359 356 353
221 226 228 226 229 232 221 237 226 223 213 202 199 184 175 199 196 206 208 214 222 234 246 261 279 294 310 321 329 338 343 352 360 3 3 2 3 3 1 357 353 349 346
219 216 233 224 231 226 223 237 235 222 220 215 203 204 203 204 178 191 215 218 223 230 238 253 267 280 294 306 321 329 332 337 346 351 349 350 353 353 351 348 344 341 339
222 229 227 227 224 221 241 238 228 220 221 221 213 211 217 215 210 197 197 216 221 226 235 246 256 267 278 294 309 312 314 323 333 336 336 340 343 343 342 340 338 334 332
221 225 227 230 232 234 246 232 226 224 221 221 220 224 231 225 223 217 208 206 214 226 233 242 250 256 268 284 295 297 305 316 323 325 327 331 334 335 333 332 332 330 329
223 225 228 234 238 236 234 225 223 223 221 220 221 226 231 229 234 228 222 209 203 224 230 241 247 252 262 278 288 291 300 310 315 318 320 323 327 328 326 327 327 326 325
234 230 234 239 235 226 222 223 224 222 218 218 221 228 226 226 229 223 227 218 206 217 230 240 248 251 260 277 287 291 298 306 309 312 315 318 322 322 320 323 323 322 322
233 231 236 239 232 228 222 223 222 217 215 218 221 221 221 224 223 220 218 216 216 217 226 246 247 253 265 283 290 295 300 304 308 310 312 315 317 316 316 319 321 321 321
231 229 231 236 233 231 224 222 217 214 216 217 217 218 218 219 218 216 216 219 232 232 220 242 249 263 278 288 293 297 301 303 305 309 312 313 315 314 316 317 320 320 320
228 229 230 234 234 234 228 221 218 217 215 215 215 215 216 214 212 211 215 258 240 237 237 250 259 270 280 289 293 297 301 304 308 312 314 315 317 314 316 317 320 320 320
228 229 231 232 233 231 230 223 219 215 215 213 213 213 212 209 204 206 245 250 245 249 252 259 267 273 280 287 293 299 303 307 311 314 314 314 317 316 316 320 320 321 318
228 230 232 233 235 232 228 223 218 216 215 215 217 216 212 204 199 230 232 247 250 256 262 269 276 280 285 290 295 300 305 309 311 312 313 313 315 316 324 324 321 321 319
231 234 236 236 237 234 226 221 217 215 215 216 216 214 208 200 227 230 233 248 253 259 268 274 278 284 290 293 296 300 302 305 306 309 310 308 311 323 322 324 323 322 323
234 237 240 238 237 233 227 222 219 217 216 214 212 208 202 216 250 217 238 252 257 262 270 278 281 287 290 292 295 298 298 302 303 307 307 306 311 317 321 322 319 319 323
235 237 239 239 239 235 228 223 222 219 216 215 212 206 204 228 261 218 243 254 258 264 271 276 282 286 290 291 292 294 296 299 303 303 305 304 310 315 318 316 318 320 323
237 240 238 241 241 236 230 223 221 219 218 217 215 210 216 242 261 226 244 255 261 266 270 276 281 284 288 291 291 292 296 296 295 297 299 303 307 311 315 315 319 318 322
241 243 242 241 240 237 230 223 219 219 218 219 217 215 235 259 263 236 246 259 266 269 271 278 282 287 290 292 291 293 294 291 293 296 298 298 307 309 312 314 319 317 320
240 242 243 241 239 235 228 224 221 219 218 219 218 227 245 267 265 248 246 258 265 269 274 278 281 283 285 286 289 294 289 291 291 290 280 294 300 307 311 315 317 316 319
242 242 243 241 238 232 224 220 222 223 224 222 223 231 262 267 255 251 251 262 267 272 278 279 279 281 282 284 285 284 284 282 288 290 294 286 297 307 309 309 312 316 317